TimeMST,TemperatureF,Dew PointF,Humidity,Sea Level PressureIn,VisibilityMPH,Wind Direction,Wind SpeedMPH,Gust SpeedMPH,PrecipitationIn,Events,Conditions,WindDirDegrees,DateUTC
12:53 AM,21.0,14.0,74,29.96,10.0,SW,11.5,-,N/A,,Partly Cloudy,220,2013-01-08 07:53:00
1:08 AM,21.2,15.8,80,29.91,10.0,SW,12.7,-,N/A,,Mostly Cloudy,230,2013-01-08 08:08:00
1:53 AM,23.0,16.0,74,29.98,10.0,WSW,13.8,21.9,N/A,,Overcast,250,2013-01-08 08:53:00
2:53 AM,24.1,18.0,77,30.04,10.0,Variable,4.6,-,N/A,,Overcast,0,2013-01-08 09:53:00
3:53 AM,26.1,19.9,78,30.01,10.0,WSW,19.6,29.9,N/A,,Overcast,240,2013-01-08 10:53:00
4:53 AM,24.1,18.0,77,30.00,10.0,WSW,18.4,25.3,N/A,,Overcast,250,2013-01-08 11:53:00
5:53 AM,26.1,19.9,78,29.99,10.0,WSW,32.2,42.6,N/A,,Mostly Cloudy,250,2013-01-08 12:53:00
6:50 AM,26.6,19.4,74,29.94,10.0,WSW,27.6,40.3,N/A,,Overcast,250,2013-01-08 13:50:00
6:53 AM,26.1,19.9,78,30.03,10.0,WSW,31.1,40.3,N/A,,Overcast,250,2013-01-08 13:53:00
7:22 AM,26.6,19.4,74,29.96,10.0,WSW,29.9,35.7,N/A,,Overcast,250,2013-01-08 14:22:00
7:53 AM,26.1,19.9,78,30.07,10.0,WSW,24.2,35.7,N/A,,Overcast,250,2013-01-08 14:53:00
8:36 AM,26.6,19.4,74,30.01,10.0,WSW,17.3,29.9,N/A,,Overcast,240,2013-01-08 15:36:00
8:53 AM,27.0,21.0,78,30.14,10.0,WSW,19.6,27.6,N/A,,Overcast,240,2013-01-08 15:53:00
9:53 AM,28.0,21.0,75,30.14,10.0,WSW,26.5,33.4,N/A,,Overcast,240,2013-01-08 16:53:00
10:53 AM,30.0,21.9,72,30.12,10.0,WSW,32.2,38.0,N/A,,Overcast,240,2013-01-08 17:53:00
11:53 AM,30.9,21.9,69,30.13,10.0,WSW,32.2,41.4,N/A,,Mostly Cloudy,250,2013-01-08 18:53:00
12:53 PM,32.0,21.9,66,30.14,10.0,WSW,25.3,33.4,N/A,,Mostly Cloudy,240,2013-01-08 19:53:00
1:53 PM,30.9,21.0,67,30.16,10.0,WSW,27.6,34.5,N/A,,Mostly Cloudy,250,2013-01-08 20:53:00
2:53 PM,30.9,21.9,69,30.18,10.0,WSW,18.4,29.9,N/A,,Overcast,240,2013-01-08 21:53:00
3:40 PM,30.2,21.2,69,30.12,10.0,WSW,25.3,35.7,N/A,,Scattered Clouds,250,2013-01-08 22:40:00
3:53 PM,30.0,21.0,69,30.20,10.0,WSW,18.4,29.9,N/A,,Partly Cloudy,250,2013-01-08 22:53:00
4:53 PM,28.0,21.0,75,30.22,10.0,West,26.5,33.4,N/A,,Clear,260,2013-01-08 23:53:00
5:53 PM,26.1,19.9,78,30.25,10.0,WSW,19.6,-,N/A,,Clear,250,2013-01-09 00:53:00
6:53 PM,27.0,19.9,75,30.22,10.0,WSW,21.9,28.8,N/A,,Partly Cloudy,250,2013-01-09 01:53:00
7:53 PM,27.0,19.9,75,30.25,10.0,WSW,24.2,33.4,N/A,,Clear,250,2013-01-09 02:53:00
8:53 PM,26.1,19.9,78,30.28,10.0,West,18.4,26.5,N/A,,Clear,260,2013-01-09 03:53:00
9:53 PM,28.0,21.0,75,30.30,10.0,WSW,21.9,32.2,N/A,,Mostly Cloudy,240,2013-01-09 04:53:00
10:11 PM,28.4,19.4,69,30.23,10.0,WSW,25.3,33.4,N/A,,Scattered Clouds,240,2013-01-09 05:11:00
10:38 PM,28.4,21.2,74,30.27,10.0,WSW,20.7,31.1,N/A,,Mostly Cloudy,240,2013-01-09 05:38:00
10:53 PM,28.9,21.0,72,30.33,10.0,WSW,23.0,31.1,N/A,,Overcast,240,2013-01-09 05:53:00
11:53 PM,28.9,21.0,72,30.36,10.0,SW,17.3,25.3,N/A,,Overcast,230,2013-01-09 06:53:00